Time,TemperatureF,DewpointF,PressureIn,WindDirection,WindDirectionDegrees,WindSpeedMPH,WindSpeedGustMPH,Humidity,HourlyPrecipIn,Conditions,Clouds,dailyrainin,SolarRadiationWatts/m^2,SoftwareType,DateUTC
2013-04-19 00:03:00,68.0,66.0,-100.00,East,81,1.0,6.0,94,0.00,,,0.00,0.000000,,2013-04-19 04:03:00,
2013-04-19 00:33:00,69.0,67.0,-100.00,ESE,112,3.0,6.0,94,0.00,,,0.00,0.000000,,2013-04-19 04:33:00,
2013-04-19 00:43:00,69.0,67.0,-100.00,ESE,112,3.0,6.0,94,0.00,,,0.00,0.000000,,2013-04-19 04:43:00,
2013-04-19 00:52:00,69.0,67.0,-100.00,ESE,112,3.0,6.0,94,0.00,,,0.00,0.000000,,2013-04-19 04:52:00,
2013-04-19 01:03:00,69.0,67.0,-100.00,ESE,112,3.0,6.0,94,0.00,,,0.00,0.000000,,2013-04-19 05:03:00,
2013-04-19 01:32:00,71.0,68.0,-100.00,ESE,116,2.0,7.0,91,0.00,,,0.00,0.000000,,2013-04-19 05:32:00,
2013-04-19 01:42:00,71.0,68.0,-100.00,ESE,116,2.0,7.0,91,0.00,,,0.00,0.000000,,2013-04-19 05:42:00,
2013-04-19 01:52:00,71.0,68.0,-100.00,ESE,116,2.0,7.0,91,0.00,,,0.00,0.000000,,2013-04-19 05:52:00,
2013-04-19 02:02:00,71.0,68.0,-100.00,ESE,116,2.0,7.0,91,0.00,,,0.00,0.000000,,2013-04-19 06:02:00,
2013-04-19 02:32:00,71.0,69.0,-100.00,ESE,123,2.0,7.0,93,0.00,,,0.00,0.000000,,2013-04-19 06:32:00,
2013-04-19 02:42:00,71.0,69.0,-100.00,ESE,123,2.0,7.0,93,0.00,,,0.00,0.000000,,2013-04-19 06:42:00,
2013-04-19 02:53:00,71.0,69.0,-100.00,ESE,123,2.0,7.0,93,0.00,,,0.00,0.000000,,2013-04-19 06:53:00,
2013-04-19 03:02:00,71.0,69.0,-100.00,ESE,123,2.0,7.0,93,0.00,,,0.00,0.000000,,2013-04-19 07:02:00,
2013-04-19 03:32:00,71.0,69.0,-100.00,SE,132,3.0,8.0,94,0.00,,,0.00,0.000000,,2013-04-19 07:32:00,
2013-04-19 03:42:00,71.0,69.0,-100.00,SE,132,3.0,8.0,94,0.00,,,0.00,0.000000,,2013-04-19 07:42:00,
2013-04-19 03:52:00,71.0,69.0,-100.00,SE,132,3.0,8.0,94,0.00,,,0.00,0.000000,,2013-04-19 07:52:00,
2013-04-19 04:02:00,71.0,69.0,-100.00,SE,132,3.0,8.0,94,0.00,,,0.00,0.000000,,2013-04-19 08:02:00,
2013-04-19 04:33:00,72.0,70.0,-100.00,ESE,102,3.0,9.0,94,0.00,,,0.00,0.000000,,2013-04-19 08:33:00,
2013-04-19 04:42:00,72.0,70.0,-100.00,ESE,102,3.0,9.0,94,0.00,,,0.00,0.000000,,2013-04-19 08:42:00,
2013-04-19 04:52:00,72.0,70.0,-100.00,ESE,102,3.0,9.0,94,0.00,,,0.00,0.000000,,2013-04-19 08:52:00,
2013-04-19 05:01:00,72.0,70.0,-100.00,ESE,102,3.0,9.0,94,0.00,,,0.00,0.000000,,2013-04-19 09:01:00,
2013-04-19 05:33:00,72.0,70.0,-100.00,SSE,164,3.0,9.0,93,0.00,,,0.00,0.000000,,2013-04-19 09:33:00,
2013-04-19 05:43:00,72.0,70.0,-100.00,SSE,164,3.0,9.0,93,0.00,,,0.00,0.000000,,2013-04-19 09:43:00,
2013-04-19 05:52:00,72.0,70.0,-100.00,SSE,164,3.0,9.0,93,0.00,,,0.00,0.000000,,2013-04-19 09:52:00,
2013-04-19 06:02:00,72.0,70.0,-100.00,SSE,164,3.0,9.0,93,0.00,,,0.00,0.000000,,2013-04-19 10:02:00,
2013-04-19 06:33:00,72.0,70.0,-100.00,SSW,210,2.0,7.0,92,0.00,,,0.00,0.000000,,2013-04-19 10:33:00,
2013-04-19 06:42:00,72.0,70.0,-100.00,SSW,210,2.0,7.0,92,0.00,,,0.00,0.000000,,2013-04-19 10:42:00,
2013-04-19 06:52:00,72.0,70.0,-100.00,SSW,210,2.0,7.0,92,0.00,,,0.00,0.000000,,2013-04-19 10:52:00,
2013-04-19 07:03:00,72.0,70.0,-100.00,SSW,210,2.0,7.0,92,0.00,,,0.00,0.000000,,2013-04-19 11:03:00,
2013-04-19 07:32:00,72.0,69.0,-100.00,WNW,286,2.0,6.0,91,0.00,,,0.00,0.000000,,2013-04-19 11:32:00,
2013-04-19 07:43:00,72.0,69.0,-100.00,WNW,286,2.0,6.0,91,0.00,,,0.00,0.000000,,2013-04-19 11:43:00,
2013-04-19 07:52:00,72.0,69.0,-100.00,WNW,286,2.0,6.0,91,0.00,,,0.00,0.000000,,2013-04-19 11:52:00,
2013-04-19 08:03:00,72.0,69.0,-100.00,WNW,286,2.0,6.0,91,0.00,,,0.00,0.000000,,2013-04-19 12:03:00,
2013-04-19 08:22:00,73.0,69.0,-100.00,SSW,200,2.0,7.0,88,0.00,,,0.00,21.000000,,2013-04-19 12:22:00,
2013-04-19 08:32:00,73.0,69.0,-100.00,SSW,200,2.0,7.0,88,0.00,,,0.00,21.000000,,2013-04-19 12:32:00,
2013-04-19 08:42:00,73.0,69.0,-100.00,SSW,200,2.0,7.0,88,0.00,,,0.00,21.000000,,2013-04-19 12:42:00,
2013-04-19 08:53:00,73.0,69.0,-100.00,SSW,200,2.0,7.0,88,0.00,,,0.00,21.000000,,2013-04-19 12:53:00,
2013-04-19 09:01:00,73.0,69.0,-100.00,SSW,200,2.0,7.0,88,0.00,,,0.00,21.000000,,2013-04-19 13:01:00,
2013-04-19 09:32:00,75.0,68.0,-100.00,SW,224,3.0,12.0,78,0.00,,,0.00,113.000000,,2013-04-19 13:32:00,
2013-04-19 09:42:00,75.0,68.0,-100.00,SW,224,3.0,12.0,78,0.00,,,0.00,113.000000,,2013-04-19 13:42:00,
2013-04-19 09:52:00,75.0,68.0,-100.00,SW,224,3.0,12.0,78,0.00,,,0.00,113.000000,,2013-04-19 13:52:00,
2013-04-19 10:02:00,75.0,68.0,-100.00,SW,224,3.0,12.0,78,0.00,,,0.00,113.000000,,2013-04-19 14:02:00,
2013-04-19 10:22:00,76.0,68.0,-100.00,SSW,209,3.0,7.0,77,0.00,,,0.00,161.000000,,2013-04-19 14:22:00,
2013-04-19 10:32:00,76.0,68.0,-100.00,SSW,209,3.0,7.0,77,0.00,,,0.00,161.000000,,2013-04-19 14:32:00,
2013-04-19 10:43:00,76.0,68.0,-100.00,SSW,209,3.0,7.0,77,0.00,,,0.00,161.000000,,2013-04-19 14:43:00,
2013-04-19 10:52:00,76.0,68.0,-100.00,SSW,209,3.0,7.0,77,0.00,,,0.00,161.000000,,2013-04-19 14:52:00,
2013-04-19 11:02:00,76.0,68.0,-100.00,SSW,209,3.0,7.0,77,0.00,,,0.00,161.000000,,2013-04-19 15:02:00,
2013-04-19 11:22:00,81.0,69.0,-100.00,SSW,213,5.0,11.0,68,0.00,,,0.00,432.000000,,2013-04-19 15:22:00,
2013-04-19 11:33:00,81.0,69.0,-100.00,SSW,213,5.0,11.0,68,0.00,,,0.00,432.000000,,2013-04-19 15:33:00,
2013-04-19 11:43:00,81.0,69.0,-100.00,SSW,213,5.0,11.0,68,0.00,,,0.00,432.000000,,2013-04-19 15:43:00,
2013-04-19 11:52:00,81.0,69.0,-100.00,SSW,213,5.0,11.0,68,0.00,,,0.00,432.000000,,2013-04-19 15:52:00,
2013-04-19 12:03:00,81.0,69.0,-100.00,SSW,213,5.0,11.0,68,0.00,,,0.00,432.000000,,2013-04-19 16:03:00,
2013-04-19 12:33:00,85.0,69.0,-100.00,WSW,237,5.0,14.0,59,0.00,,,0.00,689.000000,,2013-04-19 16:33:00,
2013-04-19 12:43:00,85.0,69.0,-100.00,WSW,237,5.0,14.0,59,0.00,,,0.00,689.000000,,2013-04-19 16:43:00,
2013-04-19 12:53:00,85.0,69.0,-100.00,WSW,237,5.0,14.0,59,0.00,,,0.00,689.000000,,2013-04-19 16:53:00,
2013-04-19 13:02:00,85.0,69.0,-100.00,WSW,237,5.0,14.0,59,0.00,,,0.00,689.000000,,2013-04-19 17:02:00,
2013-04-19 13:33:00,87.0,67.0,-100.00,SW,231,4.0,14.0,52,0.00,,,0.00,885.000000,,2013-04-19 17:33:00,
2013-04-19 13:43:00,87.0,67.0,-100.00,SW,231,4.0,14.0,52,0.00,,,0.00,885.000000,,2013-04-19 17:43:00,
2013-04-19 13:52:00,87.0,67.0,-100.00,SW,231,4.0,14.0,52,0.00,,,0.00,885.000000,,2013-04-19 17:52:00,
2013-04-19 14:02:00,87.0,67.0,-100.00,SW,231,4.0,14.0,52,0.00,,,0.00,885.000000,,2013-04-19 18:02:00,
2013-04-19 14:33:00,88.0,66.0,-100.00,SW,214,4.0,12.0,49,0.00,,,0.00,800.000000,,2013-04-19 18:33:00,
2013-04-19 14:43:00,88.0,66.0,-100.00,SW,214,4.0,12.0,49,0.00,,,0.00,800.000000,,2013-04-19 18:43:00,
2013-04-19 14:52:00,88.0,66.0,-100.00,SW,214,4.0,12.0,49,0.00,,,0.00,800.000000,,2013-04-19 18:52:00,
2013-04-19 15:02:00,88.0,66.0,-100.00,SW,214,4.0,12.0,49,0.00,,,0.00,800.000000,,2013-04-19 19:02:00,
2013-04-19 15:32:00,89.0,66.0,-100.00,SW,215,5.0,12.0,47,0.00,,,0.00,736.000000,,2013-04-19 19:32:00,
2013-04-19 15:42:00,89.0,66.0,-100.00,SW,215,5.0,12.0,47,0.00,,,0.00,736.000000,,2013-04-19 19:42:00,
2013-04-19 15:52:00,89.0,66.0,-100.00,SW,215,5.0,12.0,47,0.00,,,0.00,736.000000,,2013-04-19 19:52:00,
2013-04-19 16:02:00,89.0,66.0,-100.00,SW,215,5.0,12.0,47,0.00,,,0.00,736.000000,,2013-04-19 20:02:00,
2013-04-19 16:32:00,88.0,69.0,-100.00,South,169,5.0,11.0,54,0.00,,,0.00,711.000000,,2013-04-19 20:32:00,
2013-04-19 16:42:00,88.0,69.0,-100.00,South,169,5.0,11.0,54,0.00,,,0.00,711.000000,,2013-04-19 20:42:00,
2013-04-19 16:52:00,88.0,69.0,-100.00,South,169,5.0,11.0,54,0.00,,,0.00,711.000000,,2013-04-19 20:52:00,
2013-04-19 17:01:00,88.0,69.0,-100.00,South,169,5.0,11.0,54,0.00,,,0.00,711.000000,,2013-04-19 21:01:00,
2013-04-19 17:32:00,81.0,69.0,-100.00,ESE,120,4.0,12.0,68,0.00,,,0.00,158.000000,,2013-04-19 21:32:00,
2013-04-19 17:43:00,81.0,69.0,-100.00,ESE,120,4.0,12.0,68,0.00,,,0.00,158.000000,,2013-04-19 21:43:00,
2013-04-19 17:53:00,81.0,69.0,-100.00,ESE,120,4.0,12.0,68,0.00,,,0.00,158.000000,,2013-04-19 21:53:00,
2013-04-19 18:02:00,81.0,69.0,-100.00,ESE,120,4.0,12.0,68,0.00,,,0.00,158.000000,,2013-04-19 22:02:00,
2013-04-19 18:33:00,80.0,71.0,-100.00,ESE,120,1.0,11.0,74,0.00,,,0.00,76.000000,,2013-04-19 22:33:00,
2013-04-19 18:42:00,80.0,71.0,-100.00,ESE,120,1.0,11.0,74,0.00,,,0.00,76.000000,,2013-04-19 22:42:00,
2013-04-19 18:52:00,80.0,71.0,-100.00,ESE,120,1.0,11.0,74,0.00,,,0.00,76.000000,,2013-04-19 22:52:00,
2013-04-19 19:03:00,80.0,71.0,-100.00,ESE,120,1.0,11.0,74,0.00,,,0.00,76.000000,,2013-04-19 23:03:00,
2013-04-19 19:32:00,71.0,66.0,-100.00,West,280,4.0,22.0,83,0.04,,,0.04,12.000000,,2013-04-19 23:32:00,
2013-04-19 19:42:00,71.0,66.0,-100.00,West,280,4.0,22.0,83,0.04,,,0.04,12.000000,,2013-04-19 23:42:00,
2013-04-19 19:53:00,71.0,66.0,-100.00,West,280,4.0,22.0,83,0.04,,,0.04,12.000000,,2013-04-19 23:53:00,
2013-04-19 20:02:00,71.0,66.0,-100.00,West,280,4.0,22.0,83,0.04,,,0.04,12.000000,,2013-04-20 00:02:00,
2013-04-19 20:32:00,71.0,69.0,-100.00,WSW,243,2.0,10.0,92,0.00,,,0.04,15.000000,,2013-04-20 00:32:00,
2013-04-19 20:42:00,71.0,69.0,-100.00,WSW,243,2.0,10.0,92,0.00,,,0.04,15.000000,,2013-04-20 00:42:00,
2013-04-19 20:52:00,71.0,69.0,-100.00,WSW,243,2.0,10.0,92,0.00,,,0.04,15.000000,,2013-04-20 00:52:00,
2013-04-19 21:01:00,71.0,69.0,-100.00,WSW,243,2.0,10.0,92,0.00,,,0.04,15.000000,,2013-04-20 01:01:00,
2013-04-19 21:32:00,70.0,68.0,-100.00,SSE,157,0.0,4.0,95,0.02,,,0.06,0.000000,,2013-04-20 01:32:00,
2013-04-19 21:42:00,70.0,68.0,-100.00,SSE,157,0.0,4.0,95,0.02,,,0.06,0.000000,,2013-04-20 01:42:00,
2013-04-19 21:52:00,70.0,68.0,-100.00,SSE,157,0.0,4.0,95,0.02,,,0.06,0.000000,,2013-04-20 01:52:00,
2013-04-19 22:02:00,70.0,68.0,-100.00,SSE,157,0.0,4.0,95,0.02,,,0.06,0.000000,,2013-04-20 02:02:00,
2013-04-19 22:32:00,67.0,65.0,-100.00,WNW,291,3.0,7.0,94,0.00,,,0.06,0.000000,,2013-04-20 02:32:00,
2013-04-19 22:42:00,67.0,65.0,-100.00,WNW,291,3.0,7.0,94,0.00,,,0.06,0.000000,,2013-04-20 02:42:00,
2013-04-19 22:52:00,67.0,65.0,-100.00,WNW,291,3.0,7.0,94,0.00,,,0.06,0.000000,,2013-04-20 02:52:00,
2013-04-19 23:01:00,67.0,65.0,-100.00,WNW,291,3.0,7.0,94,0.00,,,0.06,0.000000,,2013-04-20 03:01:00,
2013-04-19 23:33:00,64.0,62.0,-100.00,WNW,285,5.0,10.0,94,0.21,,,0.27,0.000000,,2013-04-20 03:33:00,
2013-04-19 23:43:00,64.0,62.0,-100.00,WNW,285,5.0,10.0,94,0.21,,,0.27,0.000000,,2013-04-20 03:43:00,
2013-04-19 23:53:00,64.0,62.0,-100.00,WNW,285,5.0,10.0,94,0.21,,,0.27,0.000000,,2013-04-20 03:53:00,